Location: Northam
(31.6525°S, 116.6655°E)
Time: 07:10:27
(UTC+08:00)

Hubble Space Telescope - Visible Passes

Search period start: 11 December 2023 00:00
Search period end: 21 December 2023 00:00
Orbit: 518 x 522 km, 28.5° (Epoch: 10 December)

Date Brightness Start Highest point End Pass type
(mag) Time Alt. Az. Time Alt. Az. Time Alt. Az.
11 Dec 2.7 03:49:31 13° N 03:49:31 13° N 03:50:45 10° N visible
11 Dec 3.1 20:47:21 10° NNW 20:47:24 10° NNW 20:47:24 10° NNW visible
12 Dec 2.2 20:30:33 10° NNW 20:33:01 20° N 20:33:01 20° N visible
13 Dec 1.9 20:13:50 10° NW 20:17:05 23° NNE 20:18:24 20° NE visible
14 Dec 1.8 19:57:09 10° NW 20:00:34 26° NNE 20:03:30 13° ENE visible
14 Dec 2.7 21:37:07 10° WNW 21:38:30 20° WNW 21:38:30 20° WNW visible
15 Dec 1.7 19:40:30 10° NW 19:44:03 30° NNE 19:47:38 10° ENE visible
15 Dec 1.6 21:20:37 10° WNW 21:23:22 37° NW 21:23:22 37° NW visible
16 Dec 0.8 21:04:07 10° WNW 21:08:03 54° N 21:08:03 54° N visible
17 Dec 0.8 20:47:36 10° WNW 20:51:35 55° N 20:52:35 42° NE visible
18 Dec 0.9 20:31:07 10° W 20:35:05 54° N 20:37:00 27° ENE visible
18 Dec 3.6 22:11:55 10° W 22:11:58 10° W 22:11:58 10° W visible
19 Dec 0.9 20:14:36 10° W 20:18:34 53° N 20:21:21 18° ENE visible
19 Dec 3.2 21:55:29 10° W 21:56:18 15° WNW 21:56:18 15° WNW visible
20 Dec 1.0 19:58:06 10° W 20:02:03 52° N 20:05:38 12° ENE visible
20 Dec 2.7 21:39:03 10° WNW 21:40:36 19° WNW 21:40:36 19° WNW visible
